DW5624 Weather Reports


time (UTC)temp
C
wind
direction
speed
KPH
gust
KPH
rain 1hr
cm
rain 24hr
cm
rain mn
cm
humidity
%
barometer
mb
20260506124904 25 80 3.2 9.7 0.00 0.00 0.00 95 1008.0
20260506124405 25 148 6.4 12.9 0.00 0.00 0.00 95 1007.9
20260506123904 25 111 8.0 12.9 0.00 0.00 0.00 95 1007.8
20260506123405 25 113 3.2 12.9 0.00 0.00 0.00 95 1007.7
20260506122904 25 109 6.4 11.3 0.00 0.00 0.00 95 1007.7
20260506122404 25 112 4.8 9.7 0.00 0.00 0.00 95 1007.8
20260506120904 25 113 3.2 14.5 0.00 0.00 0.00 95 1007.6
20260506115904 25 106 4.8 11.3 0.00 0.00 0.00 95 1007.4
20260506114404 25 167 4.8 8.0 0.00 0.00 0.00 95 1007.2
20260506113905 25 147 3.2 14.5 0.00 0.00 0.00 95 1007.1
20260506113404 25 155 3.2 8.0 0.00 0.00 0.00 95 1007.1
20260506112904 25 112 4.8 9.7 0.00 0.00 0.00 95 1007.0
20260506112404 25 190 1.6 8.0 0.00 0.00 0.00 95 1006.9
20260506111404 25 115 4.8 9.7 0.00 0.00 0.00 95 1006.9
20260506110904 25 119 4.8 11.3 0.00 0.00 0.00 95 1006.9
20260506105905 24 112 3.2 9.7 0.00 0.00 0.00 95 1006.8
20260506105404 24 113 4.8 8.0 0.00 0.00 0.00 95 1006.9
20260506104405 24 109 0.0 4.8 0.00 0.00 0.00 95 1007.0
20260506103904 24 112 3.2 4.8 0.00 0.00 0.00 95 1006.9
20260506102905 24 112 4.8 8.0 0.00 0.00 0.00 95 1006.9
20260506101905 24 102 3.2 8.0 0.00 0.00 0.00 95 1007.0
20260506101404 24 117 3.2 8.0 0.00 0.00 0.00 94 1006.9
20260506095904 25 105 3.2 8.0 0.00 0.00 0.00 94 1006.7
20260506094404 25 109 4.8 9.7 0.00 0.00 0.00 94 1006.5
20260506092405 25 109 3.2 9.7 0.00 0.00 0.00 94 1006.7
20260506091905 25 75 3.2 8.0 0.00 0.00 0.00 94 1006.8
20260506091404 25 86 3.2 4.8 0.00 0.00 0.00 94 1006.7
20260506090905 25 107 3.2 8.0 0.00 0.00 0.00 94 1006.8
20260506085404 25 113 4.8 9.7 0.00 0.00 0.00 94 1006.9
20260506084405 25 108 4.8 8.0 0.00 0.00 0.00 94 1007.0
20260506082905 25 98 6.4 11.3 0.00 0.00 0.00 94 1007.0
20260506082404 25 106 4.8 12.9 0.00 0.00 0.00 94 1007.0
20260506081904 25 130 8.0 12.9 0.00 0.00 0.00 93 1007.0
20260506080905 25 113 4.8 11.3 0.00 0.00 0.00 93 1007.1
20260506073405 25 148 4.8 9.7 0.00 0.00 0.00 93 1007.4
20260506070904 25 159 8.0 14.5 0.00 0.00 0.00 92 1007.8
20260506070404 25 136 6.4 12.9 0.00 0.00 0.00 92 1007.8
20260506061404 25 120 3.2 9.7 0.00 0.00 0.00 92 1007.7
20260506060404 25 132 4.8 9.7 0.00 0.00 0.00 92 1007.6
20260506050905 25 114 4.8 9.7 0.00 0.00 0.00 91 1007.9
20260506050405 25 98 4.8 11.3 0.00 0.00 0.00 91 1007.9
20260506044405 25 111 4.8 12.9 0.00 0.00 0.00 91 1007.9
20260506043904 25 116 6.4 12.9 0.00 0.00 0.00 91 1007.7
20260506041904 25 150 8.0 16.1 0.00 0.00 0.00 90 1007.7
20260506040904 25 134 9.7 16.1 0.00 0.00 0.00 90 1007.5
20260506040404 25 144 6.4 14.5 0.00 0.00 0.00 90 1007.4
20260506035904 25 148 8.0 12.9 0.00 0.00 0.00 90 1007.4
20260506034404 25 141 8.0 14.5 0.00 0.00 0.00 90 1007.4
20260506033904 25 155 8.0 16.1 0.00 0.00 0.00 90 1007.5
20260506033404 25 146 6.4 12.9 0.00 0.00 0.00 90 1007.4
20260506032404 25 136 8.0 19.3 0.00 0.00 0.00 90 1007.3
20260506025404 25 147 8.0 12.9 0.00 0.00 0.00 90 1007.1
20260506024904 25 144 8.0 12.9 0.00 0.00 0.00 90 1007.0
20260506024404 25 160 4.8 11.3 0.00 0.00 0.00 90 1007.0
20260506023404 25 109 8.0 14.5 0.00 0.00 0.00 90 1006.8
20260506022904 25 163 9.7 16.1 0.00 0.00 0.00 89 1006.8
20260506022404 25 116 8.0 11.3 0.00 0.00 0.00 89 1006.8
20260506020904 25 151 8.0 19.3 0.00 0.00 0.00 89 1006.5
20260506020404 25 143 8.0 16.1 0.00 0.00 0.00 89 1006.4
20260506011904 26 139 9.7 16.1 0.00 0.00 0.00 88 1005.8
20260506011404 26 116 8.0 16.1 0.00 0.00 0.00 88 1005.8
20260506010904 26 137 6.4 19.3 0.00 0.00 0.00 87 1005.7
20260506010404 26 165 9.7 14.5 0.00 0.00 0.00 87 1005.7
20260506005404 26 136 8.0 14.5 0.00 0.00 0.00 87 1005.6
20260506004904 26 161 8.0 19.3 0.00 0.00 0.00 87 1005.4
20260506004404 26 117 9.7 22.5 0.00 0.00 0.00 86 1005.5
20260506003904 26 127 8.0 19.3 0.00 0.00 0.00 86 1005.5
20260506003404 26 148 12.9 19.3 0.00 0.00 0.00 86 1005.4
20260506001404 26 156 8.0 19.3 0.00 0.00 0.00 86 1005.3
20260506000404 26 154 8.0 16.1 0.00 0.00 0.00 85 1005.3
20260505235904 26 161 9.7 16.1 0.00 0.00 0.00 85 1005.4
20260505234405 27 150 9.7 19.3 0.00 0.00 0.00 84 1005.3
20260505233904 27 151 9.7 19.3 0.00 0.00 0.00 84 1005.3
20260505233405 27 135 9.7 19.3 0.00 0.00 0.00 84 1005.4
20260505232904 27 146 9.7 19.3 0.00 0.00 0.00 83 1005.5
20260505232404 27 161 6.4 12.9 0.00 0.00 0.00 83 1005.4
20260505230904 27 148 11.3 19.3 0.00 0.00 0.00 81 1005.4
20260505224404 27 163 11.3 19.3 0.00 0.00 0.00 82 1005.4
20260505223904 27 127 8.0 19.3 0.00 0.00 0.00 82 1005.4
20260505222905 27 149 11.3 20.9 0.00 0.00 0.00 81 1005.6
20260505221904 28 148 8.0 19.3 0.00 0.00 0.00 82 1005.7
20260505220904 27 132 11.3 19.3 0.00 0.00 0.00 82 1005.7
20260505220404 27 123 9.7 14.5 0.00 0.00 0.00 82 1005.6
20260505214904 27 140 11.3 22.5 0.00 0.00 0.00 81 1005.8
20260505214404 28 169 12.9 19.3 0.00 0.00 0.00 80 1005.9
20260505212904 28 164 9.7 19.3 0.00 0.00 0.00 81 1006.0
20260505212404 28 171 9.7 19.3 0.00 0.00 0.00 80 1006.0
20260505211904 28 182 11.3 19.3 0.00 0.00 0.00 79 1006.2
20260505211404 28 167 11.3 22.5 0.00 0.00 0.00 79 1006.2
20260505210904 28 174 11.3 19.3 0.00 0.00 0.00 78 1006.3
20260505210404 28 179 11.3 20.9 0.00 0.00 0.00 79 1006.3
20260505204905 28 182 11.3 20.9 0.00 0.00 0.00 78 1006.6
20260505204404 28 164 11.3 22.5 0.00 0.00 0.00 78 1006.6
20260505203904 28 187 12.9 22.5 0.00 0.00 0.00 79 1006.6
20260505203404 28 180 12.9 20.9 0.00 0.00 0.00 80 1006.8
20260505202404 28 138 11.3 19.3 0.00 0.00 0.00 80 1006.9
20260505200904 28 150 9.7 19.3 0.00 0.00 0.00 81 1006.9
20260505195904 28 158 11.3 22.5 0.00 0.00 0.00 82 1007.1
20260505194404 28 96 9.7 16.1 0.00 0.00 0.00 80 1007.1
20260505193904 28 136 8.0 16.1 0.00 0.00 0.00 81 1007.2
20260505192404 28 177 8.0 16.1 0.00 0.00 0.00 82 1007.2
20260505191404 28 174 12.9 20.9 0.00 0.00 0.00 81 1007.4
20260505190904 28 184 11.3 24.1 0.00 0.00 0.00 82 1007.3
20260505184903 27 182 9.7 19.3 0.00 0.00 0.00 84 1007.4
20260505184404 27 170 11.3 19.3 0.00 0.00 0.00 84 1007.5
20260505183904 27 156 8.0 19.3 0.00 0.00 0.00 85 1007.6
20260505183404 27 160 6.4 11.3 0.00 0.00 0.00 85 1007.7
20260505182904 27 184 12.9 20.9 0.00 0.00 0.00 84 1007.7
20260505182404 27 167 9.7 19.3 0.00 0.00 0.00 83 1007.7
20260505181904 27 177 11.3 20.9 0.00 0.00 0.00 83 1007.8
20260505180903 27 165 9.7 14.5 0.00 0.00 0.00 84 1007.9
20260505175904 27 164 8.0 16.1 0.00 0.00 0.00 84 1007.8
20260505174404 27 177 12.9 19.3 0.00 0.00 0.00 84 1007.9
20260505173904 27 171 9.7 16.1 0.00 0.00 0.00 85 1008.0
20260505172904 26 157 9.7 19.3 0.00 0.00 0.00 85 1008.0
20260505171904 26 162 8.0 12.9 0.00 0.00 0.00 85 1008.1
20260505171404 26 141 8.0 12.9 0.00 0.00 0.00 85 1008.1
20260505170904 26 166 9.7 16.1 0.00 0.00 0.00 85 1008.2
20260505170403 26 169 11.3 20.9 0.00 0.00 0.00 85 1008.2
20260505165904 26 178 11.3 19.3 0.00 0.00 0.00 85 1008.2
20260505164404 26 168 11.3 19.3 0.00 0.00 0.00 86 1008.1
20260505162903 26 159 4.8 11.3 0.00 0.00 0.00 87 1008.0
20260505160904 26 185 9.7 19.3 0.00 0.00 0.00 85 1008.1
20260505160404 26 111 8.0 12.9 0.00 0.00 0.00 85 1007.9
20260505151403 26 174 11.3 20.9 0.00 0.00 0.00 85 1007.6
20260505150904 26 174 11.3 22.5 0.00 0.00 0.00 85 1007.6